Wind_Speed
20 20 21 21 22 22 23 23 23 24 25 26 27 28 28 28 26 23 21 20 20 20 21 25 29 32 34 36 37 38 38 39 39 39 39 37 33 19 8 23 28 27 25 21 19 17 15 13 13 14 13 13 14 15 15 13 10 6 4 2 1 1 2 4 5 6 7 10 11 12 12 14 15 15 15 14 13 11 9 8 7 7 7 9 9
19 20 20 21 22 22 22 22 23 24 24 25 26 27 28 27 25 22 20 20 20 20 21 24 27 30 33 35 36 37 38 39 39 40 40 40 38 33 17 8 23 27 26 23 21 19 16 14 13 13 12 14 15 15 16 15 11 8 6 5 4 2 2 4 5 6 7 8 11 12 13 14 15 15 15 14 14 13 12 10 9 7 7 7 7
20 20 20 21 21 22 22 21 22 24 24 24 25 26 27 26 24 21 19 19 20 21 23 25 28 30 33 34 34 36 37 38 39 39 40 40 39 38 31 14 9 23 26 25 22 20 18 17 14 12 13 16 15 13 15 14 12 10 10 8 7 6 4 4 4 4 6 8 9 12 13 14 15 16 16 15 14 13 14 13 12 10 9 8 6
20 20 20 21 22 22 22 22 22 24 24 24 24 25 26 24 22 20 20 21 22 23 24 26 28 31 33 34 35 35 36 37 38 38 38 39 39 38 37 29 12 10 22 25 23 21 20 18 17 15 16 17 15 14 15 15 14 13 12 12 12 12 11 8 5 4 4 6 9 11 14 15 16 17 18 18 16 14 14 15 14 13 12 10 9
19 19 20 21 22 23 23 23 23 24 25 24 24 24 23 21 19 19 20 22 23 23 25 27 29 31 32 33 35 35 35 36 37 37 37 37 37 37 36 34 27 11 8 20 24 23 22 21 20 19 19 18 17 18 17 17 17 15 14 14 15 15 15 14 12 9 7 6 8 10 13 15 17 18 18 19 19 17 15 15 16 15 14 12 11
19 19 20 21 22 23 23 24 24 24 24 24 24 23 21 17 16 16 18 20 22 24 26 28 30 31 32 33 34 35 35 35 36 36 37 37 36 36 35 34 32 25 12 6 18 23 23 22 22 21 21 21 20 21 22 21 19 18 16 16 16 17 17 17 16 14 12 9 9 10 12 14 17 18 19 20 20 20 18 17 16 16 15 14 13
18 19 20 21 22 22 23 23 24 24 24 24 24 23 19 15 13 13 15 18 21 24 26 28 30 31 32 33 34 35 35 35 35 36 36 36 35 34 33 32 32 30 25 15 4 16 23 24 23 23 23 23 23 23 24 25 23 21 19 18 18 18 19 20 20 18 17 15 13 13 12 13 15 18 20 21 21 21 21 20 18 17 16 15 14
19 19 20 21 22 23 23 24 24 23 22 24 24 22 19 16 14 14 15 17 21 24 26 27 29 31 32 33 34 34 35 35 35 35 35 35 35 34 32 31 31 29 28 25 17 6 13 21 24 24 25 25 25 26 25 25 25 25 24 22 22 22 22 22 22 21 20 20 18 18 17 15 15 17 19 21 22 22 22 22 21 19 18 16 15
19 19 20 22 23 24 24 24 24 22 20 21 22 21 20 18 18 18 18 18 21 23 25 27 29 30 31 32 33 33 34 34 35 35 35 35 35 34 33 31 29 27 26 26 23 17 8 8 19 24 25 26 26 28 28 27 26 27 27 26 25 26 25 23 24 24 23 24 23 23 23 21 19 18 19 21 22 23 23 23 23 22 21 19 18
20 21 22 22 24 25 25 25 25 22 19 18 20 21 20 20 21 21 21 21 22 24 25 27 28 29 30 31 32 32 33 33 34 34 34 34 34 34 34 32 29 26 24 24 23 20 18 10 6 15 22 26 27 27 28 29 28 28 29 29 29 29 27 25 25 26 27 27 27 26 27 26 24 22 21 22 23 23 24 24 25 24 24 23 21
21 22 23 24 24 26 27 27 26 23 20 17 18 20 21 21 22 23 23 22 23 24 26 27 27 28 29 31 31 31 32 32 32 33 33 33 33 33 33 32 31 28 24 22 21 19 19 18 14 8 10 19 25 27 28 29 30 30 31 31 31 32 32 29 26 27 29 29 29 29 30 30 29 26 24 24 25 25 25 26 26 26 26 26 25
22 22 23 24 25 26 28 29 28 25 21 17 16 18 21 22 23 23 23 23 23 25 26 26 27 28 29 30 30 30 31 31 31 32 32 32 32 32 32 32 31 29 26 23 21 19 18 17 17 16 12 8 14 22 27 29 30 30 31 32 33 34 35 35 32 29 29 30 31 31 33 33 32 30 28 27 27 27 27 28 28 27 28 28 28
22 23 24 25 26 26 28 30 30 28 23 17 15 16 20 23 24 25 25 24 25 26 27 28 29 30 31 30 30 30 30 30 30 30 30 31 31 31 31 31 31 31 29 26 23 21 18 16 16 16 15 13 11 10 16 24 29 31 32 32 33 34 36 37 38 35 32 32 33 34 35 35 35 34 32 30 31 31 29 29 30 30 30 30 29
22 23 24 25 25 26 28 29 30 30 25 19 15 15 18 23 25 27 28 27 27 28 29 30 31 32 32 31 30 30 31 31 30 29 29 29 30 30 31 31 31 31 31 28 25 23 21 18 17 15 13 12 12 12 10 12 18 25 30 33 34 35 36 37 39 40 38 35 34 35 37 38 37 37 36 34 34 35 33 31 31 31 31 31 30
22 23 25 25 25 26 27 28 29 29 27 22 17 16 18 23 26 28 30 29 30 31 31 32 32 33 33 32 32 32 31 31 30 29 27 28 29 29 30 31 31 31 31 31 28 26 24 22 19 17 14 13 12 11 12 11 11 14 20 27 32 36 37 38 39 42 43 41 38 37 37 38 39 39 39 39 38 38 38 35 33 32 32 32 32
22 24 25 25 26 26 27 28 27 27 26 23 20 17 18 22 26 31 32 32 32 33 33 32 31 31 32 33 33 32 32 31 30 29 28 27 29 30 30 30 31 31 31 31 30 29 27 25 23 20 18 17 15 13 13 12 11 11 12 15 22 29 35 39 41 42 44 45 45 43 41 39 39 39 41 42 42 41 41 40 38 35 33 33 34
23 24 25 25 26 27 28 29 28 26 25 23 21 19 19 21 27 33 34 33 34 34 32 30 29 30 32 33 33 32 32 32 31 31 30 29 29 30 30 31 31 30 31 31 30 29 28 27 26 24 22 21 19 19 18 16 14 12 11 11 13 18 25 32 38 42 45 47 49 48 47 45 42 41 42 43 44 44 43 43 42 40 37 35 35
24 25 26 27 27 28 29 30 30 29 26 23 21 21 20 24 30 33 32 32 33 33 30 27 28 30 32 32 32 32 32 32 32 32 32 31 30 30 30 31 32 31 31 32 31 30 29 28 27 27 26 25 24 24 23 23 21 17 13 11 11 13 16 22 29 36 42 47 50 51 52 51 49 47 45 44 46 46 46 45 45 43 41 38 37
26 27 27 28 28 29 30 31 32 32 31 28 25 24 24 28 31 31 30 32 33 32 30 27 28 30 32 32 32 32 33 33 33 33 33 34 34 33 32 32 32 32 32 32 32 31 30 29 28 28 28 28 28 28 28 29 28 25 21 17 14 13 14 16 21 28 35 42 48 51 53 54 54 53 51 49 47 47 48 47 47 46 44 42 40
26 27 28 29 30 30 31 32 33 34 34 33 31 30 30 32 33 33 33 33 33 32 30 29 30 31 32 32 33 34 34 33 33 33 33 35 36 36 36 34 33 32 32 33 34 33 32 31 29 29 30 30 30 31 32 33 34 33 31 27 23 20 18 17 17 21 27 35 42 49 52 54 56 57 57 56 53 50 49 49 49 49 48 46 43
27 27 29 30 30 31 32 33 34 35 36 36 36 35 35 36 36 36 36 35 33 32 30 30 31 32 32 33 34 35 35 35 34 33 34 35 36 37 38 38 35 32 32 33 34 34 34 33 32 30 31 32 32 33 34 35 37 39 39 38 34 30 26 24 21 20 22 27 35 43 49 54 56 58 59 60 60 57 53 51 51 51 51 50 48
27 28 29 30 31 32 33 34 35 36 37 38 38 38 38 39 38 38 37 36 35 33 32 31 32 33 34 34 35 36 37 37 37 36 35 35 36 37 38 39 38 35 34 34 35 35 35 35 35 33 32 32 33 35 36 36 37 40 43 43 41 38 35 32 29 25 23 23 28 34 42 49 54 58 60 62 63 63 60 56 53 53 53 52 52
28 29 30 31 32 33 34 35 36 37 38 39 39 39 40 39 39 38 38 37 35 34 33 33 33 34 35 36 36 37 38 39 39 38 37 37 37 37 37 38 38 37 37 37 38 38 37 36 36 36 35 33 34 36 38 38 39 41 43 44 44 43 41 38 35 31 28 25 25 28 34 41 47 53 59 63 65 66 66 63 59 56 55 54 54
29 30 31 32 33 34 35 36 37 38 39 40 40 40 40 40 40 39 38 37 35 35 34 34 35 36 37 38 39 40 40 40 40 40 39 38 37 37 37 37 37 38 39 40 41 40 39 37 35 35 36 36 37 38 39 41 43 44 44 44 44 43 43 42 41 38 35 31 28 28 29 34 40 46 53 60 65 68 68 68 66 63 59 57 56
31 31 32 33 34 35 36 37 39 39 40 41 42 41 41 41 40 39 39 38 36 35 35 36 37 38 39 41 41 41 40 41 42 41 40 38 36 36 36 35 36 38 40 42 43 42 42 40 37 36 36 38 39 40 41 44 45 46 46 46 44 44 44 45 47 48 45 41 36 32 30 31 35 41 47 53 61 68 71 71 71 69 66 62 59
32 33 33 35 35 36 37 38 40 41 41 42 43 44 43 43 42 41 40 39 38 37 37 38 39 40 41 42 42 41 40 41 43 42 39 37 35 35 35 35 36 38 40 41 43 44 44 43 41 39 38 39 40 42 44 46 47 47 47 46 45 45 46 47 51 53 51 46 41 37 34 32 33 37 43 48 55 62 70 73 74 74 72 68 64
33 34 35 35 37 38 38 39 41 42 42 43 44 45 45 45 44 43 42 40 39 38 39 40 41 42 43 44 44 42 41 42 42 40 37 35 35 36 36 35 35 37 39 40 42 44 45 46 45 43 42 42 43 44 46 48 49 48 47 47 46 47 48 49 53 56 53 46 42 38 36 34 33 34 38 44 50 56 63 71 76 77 76 74 71
35 36 36 37 38 39 40 41 42 44 44 45 46 46 46 46 45 43 42 40 39 39 40 41 42 44 45 46 46 45 44 43 42 41 38 36 36 37 37 36 35 36 38 40 41 43 45 46 47 46 46 47 48 48 48 49 50 49 49 48 48 50 51 53 58 61 56 50 44 40 38 36 34 34 36 40 45 50 56 64 73 78 79 78 76
36 37 38 39 39 40 41 43 44 45 46 46 47 47 47 46 45 43 41 40 40 40 41 42 43 45 46 47 48 48 47 45 43 42 41 40 39 39 38 37 37 38 39 41 43 44 46 47 48 49 49 50 50 49 48 49 49 49 50 50 51 53 54 57 62 63 58 52 48 45 41 39 37 35 35 37 41 45 50 57 65 75 81 81 81
38 39 40 41 41 42 43 44 45 46 47 48 48 48 48 47 45 43 41 40 40 41 42 43 44 45 47 48 48 49 47 45 44 44 43 43 42 42 41 40 40 41 42 43 44 46 47 48 49 50 50 49 48 47 47 47 47 49 50 52 53 54 56 62 66 64 59 54 51 49 46 42 40 38 36 37 39 42 46 51 58 67 77 83 84
39 40 41 42 43 44 45 45 47 47 48 49 49 49 49 47 46 44 42 41 41 42 43 44 45 47 48 49 49 48 47 46 46 46 46 46 45 45 44 43 43 44 45 46 47 47 47 47 47 47 46 45 44 44 45 45 46 47 49 51 52 54 61 66 66 62 59 57 54 51 49 46 43 41 39 38 39 42 45 49 54 60 69 79 85
41 42 42 43 44 46 46 47 48 49 49 50 50 51 50 49 47 45 43 42 43 43 44 45 47 48 49 50 50 49 48 48 47 47 47 48 47 46 46 46 46 46 47 48 48 47 46 45 45 43 42 42 42 43 43 45 47 47 50 51 52 58 66 67 62 60 59 58 56 53 50 48 46 43 43 42 41 42 44 47 51 56 63 72 81
43 44 45 45 46 47 48 49 50 50 51 51 52 52 51 50 49 46 44 43 43 44 45 46 48 49 50 51 51 51 50 49 48 46 47 48 49 48 48 48 48 48 49 49 47 46 44 43 42 41 40 41 42 43 44 46 48 50 53 55 56 62 69 67 61 60 57 56 55 53 49 47 46 44 44 45 44 42 43 46 49 54 60 67 76
45 46 47 47 48 48 49 50 51 52 52 52 53 52 52 51 50 48 45 43 43 44 46 47 48 49 50 51 52 53 52 49 47 46 47 50 51 50 50 51 50 50 49 48 46 45 43 42 41 41 42 44 44 45 47 49 50 53 56 59 61 67 71 68 64 59 55 54 54 52 49 46 44 43 43 44 44 44 44 44 46 50 56 63 70
47 48 49 49 50 50 51 51 52 53 53 53 53 53 53 51 49 48 47 44 43 44 46 48 50 49 50 52 54 54 52 48 46 46 49 53 53 51 52 53 51 50 49 47 45 44 43 42 42 43 45 47 48 49 51 52 53 54 57 61 65 71 74 71 67 61 55 53 53 52 49 47 45 43 42 43 44 45 46 45 46 47 52 58 64
49 49 50 51 51 51 52 52 53 54 54 54 54 54 53 51 50 49 48 46 45 46 48 50 50 49 50 54 56 55 51 47 46 48 52 55 54 53 54 53 51 50 48 45 44 43 44 44 45 47 48 50 52 53 54 55 57 57 58 63 68 75 77 73 69 65 57 52 51 51 49 47 47 47 46 46 47 48 48 48 48 48 49 53 59
51 51 52 52 53 53 53 53 54 54 55 54 55 55 53 51 50 49 48 49 50 51 51 52 51 49 51 55 57 55 51 47 48 51 54 56 54 53 54 52 51 51 49 45 43 43 45 47 49 51 52 54 56 57 57 59 61 61 63 66 71 77 79 75 71 67 61 56 53 50 48 47 47 49 50 50 51 52 52 52 51 51 51 53 56
53 54 54 53 54 53 53 54 55 55 55 55 54 55 54 52 50 50 50 52 54 53 51 51 52 51 53 56 58 57 53 51 52 54 55 56 54 53 53 51 50 51 49 46 44 45 47 50 53 55 57 58 60 61 62 63 64 65 67 69 74 80 81 78 74 70 65 62 59 53 49 48 48 50 51 52 53 55 56 56 55 55 55 56 57
55 56 56 55 55 54 54 54 55 56 57 56 55 56 56 54 51 52 53 53 54 53 52 52 54 55 56 57 59 59 56 55 56 56 57 56 53 53 54 52 50 49 48 46 45 47 50 54 57 60 61 62 64 65 66 67 67 68 70 72 77 83 85 82 78 74 70 67 63 57 53 52 53 54 54 55 56 57 58 58 58 59 60 60 61
56 58 58 57 56 56 55 55 56 57 57 57 56 56 57 56 54 54 54 53 53 52 52 54 56 57 58 59 61 60 57 57 58 58 58 54 51 53 55 53 50 49 48 47 46 49 54 58 61 63 65 67 68 69 71 71 71 72 73 75 80 87 89 87 84 80 76 72 66 60 57 57 57 58 59 59 61 61 61 60 60 61 63 65 66
57 58 59 59 58 57 56 55 56 57 57 56 55 55 57 57 56 55 54 53 54 53 53 55 56 58 61 62 62 61 60 59 57 57 58 55 51 53 55 54 51 50 49 48 49 51 57 62 65 66 68 70 72 73 74 74 74 76 77 78 83 89 90 89 87 85 82 78 71 65 62 61 61 62 63 64 64 65 64 64 64 63 64 67 69
59 60 61 61 60 59 57 56 57 58 57 55 54 55 56 57 56 56 55 56 56 54 54 57 59 61 63 63 62 62 62 59 55 56 59 56 53 54 55 54 52 49 49 50 51 53 60 65 68 70 72 74 75 77 78 78 79 80 81 82 86 91 92 90 88 88 86 82 75 70 67 67 67 67 67 68 67 67 67 67 67 66 66 68 70
62 62 63 63 63 62 61 59 59 59 58 57 56 56 57 57 57 58 58 57 55 53 54 58 60 61 62 62 62 62 61 59 57 58 58 55 54 56 57 55 53 50 50 52 54 57 64 68 71 74 76 77 79 81 82 83 85 85 85 86 88 92 95 93 90 90 88 84 78 73 71 72 72 71 70 70 70 70 69 69 68 67 67 68 70
64 64 64 64 65 65 64 63 63 62 62 60 58 58 58 57 58 59 57 55 53 52 55 59 61 63 63 63 63 63 62 60 57 57 57 55 56 58 60 59 57 53 50 52 56 61 67 71 74 77 80 81 83 85 86 88 89 89 89 89 90 94 98 96 92 91 89 85 81 76 75 77 77 74 72 72 71 71 70 69 68 67 66 67 69
65 66 66 66 66 66 66 66 65 65 64 62 60 60 58 57 59 58 54 53 52 53 57 62 65 65 65 65 66 65 62 59 58 59 59 58 59 61 61 61 59 54 51 53 57 63 70 74 77 80 82 84 85 87 89 89 89 90 90 89 92 98 100 97 94 91 88 86 83 79 78 80 80 76 74 74 72 70 68 66 65 64 64 65 67
67 68 68 68 67 67 66 66 66 66 66 64 62 61 58 58 58 53 50 51 51 53 60 67 67 66 66 67 67 65 62 60 59 60 61 62 63 63 62 61 58 54 54 56 60 66 73 76 79 81 84 85 86 87 89 89 89 90 90 92 97 101 101 97 94 92 90 88 86 81 80 82 81 77 75 74 71 67 64 62 60 59 60 62 65
69 70 70 69 69 68 67 67 66 66 66 65 63 61 59 56 53 49 50 53 54 58 66 70 68 67 67 66 66 64 61 59 58 60 63 65 65 64 63 62 59 57 58 60 63 70 75 78 80 82 85 86 87 88 89 90 90 91 93 98 102 102 99 95 94 92 91 91 89 85 82 82 81 78 74 72 69 64 61 57 55 55 56 59 62
71 71 72 72 71 70 69 68 67 66 67 66 64 62 58 53 48 50 55 57 60 66 70 69 68 68 67 67 66 60 57 58 60 62 65 66 66 64 63 64 63 63 64 63 64 69 74 77 81 84 86 88 89 89 90 91 93 96 99 102 103 100 96 93 92 92 92 93 91 87 82 81 81 77 73 69 65 60 57 54 52 51 53 56 59
73 74 74 74 73 72 71 70 68 68 68 67 65 62 59 55 53 56 59 61 64 68 68 68 69 68 67 67 64 58 57 61 64 64 65 66 67 66 67 68 68 67 66 64 64 68 72 77 82 85 88 89 90 91 93 95 98 102 103 103 100 97 94 92 91 91 92 93 92 87 82 81 79 74 70 65 61 57 54 51 49 48 50 53 56
76 77 77 77 76 76 74 72 70 69 68 67 66 64 62 61 60 61 63 64 66 67 67 68 68 67 67 66 63 60 63 66 66 65 65 66 67 69 72 73 71 67 66 66 67 71 75 80 84 87 89 91 93 95 97 100 102 103 102 99 97 95 94 92 91 91 91 92 91 86 82 80 76 70 66 61 58 56 53 50 47 47 48 50 53
78 79 79 78 78 77 76 74 72 70 68 67 66 65 64 65 65 65 66 67 67 68 69 69 68 68 67 66 65 66 66 65 64 64 65 68 71 74 76 76 72 69 69 71 72 75 79 83 87 90 92 95 97 99 100 100 101 99 97 95 95 94 93 93 92 90 90 91 89 84 79 75 71 66 62 57 53 54 53 49 46 46 47 47 49
Wind_Direction
20 18 15 12 11 10 10 9 8 6 6 9 12 13 15 16 18 23 30 34 35 37 33 28 28 29 29 27 26 26 26 27 28 29 29 28 25 16 273 232 229 233 235 232 227 228 228 219 207 209 223 237 241 242 241 234 229 230 247 272 326 55 147 173 187 196 201 204 203 198 191 183 180 180 182 180 179 180 181 180 169 157 149 147 146
16 15 13 11 8 7 7 7 6 5 5 7 8 10 12 16 20 25 31 34 34 33 31 29 29 29 27 25 25 26 27 28 28 29 30 30 30 28 19 248 227 228 231 232 231 229 227 224 212 202 216 234 238 244 247 242 241 247 253 262 275 286 172 165 176 192 201 207 209 209 205 199 194 191 191 190 188 190 194 198 198 192 180 176 173
12 12 12 12 9 7 6 5 4 5 5 4 4 5 9 16 22 28 33 34 34 34 35 34 34 31 28 25 24 24 26 28 29 30 30 31 32 32 32 26 234 226 229 231 233 232 227 225 216 199 208 224 227 238 247 245 243 243 240 241 248 252 238 188 165 180 201 209 212 214 214 211 208 205 201 200 199 199 201 204 208 210 208 211 219
11 11 13 13 11 10 7 6 4 4 5 4 3 3 9 18 27 35 39 39 38 37 35 33 31 29 27 25 24 23 24 26 28 29 30 31 32 33 35 35 31 231 228 230 233 234 232 228 221 208 211 218 215 221 237 243 240 237 237 237 237 236 238 235 226 222 224 223 220 218 218 218 218 215 211 209 209 210 208 210 213 217 220 224 234
10 12 14 13 12 12 10 7 4 3 3 3 3 6 13 21 31 41 44 40 36 31 27 25 25 24 22 22 23 23 23 23 25 27 29 30 32 33 35 36 36 33 235 230 232 234 236 236 230 221 219 221 215 211 221 235 239 237 237 240 242 240 239 244 250 247 244 242 237 232 225 223 223 222 220 217 218 219 217 216 218 222 226 230 233
12 14 13 12 12 11 10 7 4 2 2 3 5 10 17 24 30 37 37 32 27 23 21 20 20 19 18 17 18 20 21 21 21 23 25 27 30 33 34 36 37 36 32 251 234 234 236 240 239 234 230 229 224 214 214 223 230 234 237 240 244 246 245 246 252 253 248 244 245 248 240 231 228 226 226 225 224 224 224 222 221 224 227 231 232
14 13 12 10 10 9 8 6 4 3 3 4 9 15 20 24 25 25 22 21 19 17 17 16 16 16 14 14 14 15 17 18 18 19 20 22 25 29 33 35 36 36 36 30 299 241 236 237 242 242 239 236 233 226 221 222 224 226 229 234 237 244 248 245 247 251 252 248 243 247 251 243 237 233 230 230 229 229 229 227 226 226 227 231 232
14 12 10 9 8 7 6 5 4 5 7 8 11 19 24 24 20 15 12 12 10 11 12 11 12 12 11 10 10 11 12 13 14 14 15 17 19 23 28 32 36 37 36 34 28 340 248 237 239 244 246 245 241 237 232 229 229 227 226 226 228 238 247 247 246 247 251 250 244 244 248 247 245 243 239 234 233 233 233 233 232 230 230 231 233
10 9 8 7 6 5 4 4 3 3 6 11 14 19 23 24 19 14 9 7 5 5 5 6 6 7 7 6 6 6 7 9 9 10 10 11 13 15 19 25 31 36 37 36 33 27 8 254 241 244 246 248 248 245 242 238 236 235 231 228 227 233 241 246 247 246 248 250 247 246 247 248 247 249 248 242 237 236 235 236 236 235 234 233 234
7 6 5 5 4 3 2 1 0 359 360 6 14 17 18 18 16 12 8 4 3 1 0 0 1 1 1 2 2 2 3 4 5 6 6 6 7 8 11 15 21 27 34 37 35 31 29 19 287 254 249 248 250 250 249 246 243 240 236 234 233 235 239 242 245 246 247 248 248 247 248 250 250 249 250 248 242 238 237 237 237 238 238 237 235
6 5 3 3 3 1 359 358 356 355 352 355 6 12 13 12 11 8 5 1 359 358 356 356 355 355 355 356 357 358 359 0 2 3 3 2 2 3 5 7 11 16 23 30 35 33 29 26 19 347 277 256 252 251 250 249 248 246 242 239 238 238 240 240 242 245 246 246 246 247 248 250 251 249 250 250 246 240 238 237 236 237 239 238 238
4 3 2 1 1 0 358 356 354 352 348 345 351 1 7 8 7 4 1 357 354 353 351 350 350 350 350 351 353 354 355 356 358 359 360 359 359 358 359 1 2 7 11 16 23 28 30 30 27 20 4 315 270 257 252 249 249 249 248 247 244 241 241 240 239 241 245 246 247 248 249 249 250 248 247 248 248 245 240 238 237 236 237 238 238
1 0 360 359 359 0 359 357 355 352 347 339 337 347 357 2 3 1 358 354 351 349 347 346 345 346 346 347 349 350 351 352 354 356 357 357 356 355 354 356 356 358 2 5 8 13 21 28 32 29 22 11 349 303 269 256 252 250 250 250 249 246 243 242 240 239 242 245 247 249 250 250 250 249 247 245 245 247 244 240 238 237 237 237 237
359 358 358 359 359 0 360 358 356 354 351 343 334 335 347 356 359 358 355 352 348 346 344 342 341 341 343 345 347 348 348 349 350 352 354 354 354 353 351 350 351 352 353 356 358 1 5 11 21 29 29 23 14 359 334 294 268 256 251 249 249 249 248 245 242 241 241 242 243 246 248 250 251 251 250 246 243 244 246 243 240 239 238 237 237
358 357 358 360 0 359 359 359 357 356 355 351 342 336 341 350 353 353 351 349 345 343 340 338 337 338 341 342 343 345 345 346 347 348 350 352 350 350 348 346 345 346 347 348 349 351 354 356 1 11 16 19 20 11 360 347 322 288 266 256 251 249 249 249 247 244 243 242 241 242 244 247 250 252 252 250 246 244 244 243 241 241 240 238 237
355 356 357 358 359 358 357 357 356 355 355 354 350 342 340 344 347 347 346 343 341 339 338 336 336 338 340 340 339 340 341 342 343 344 346 348 348 347 346 343 342 342 343 342 342 342 344 347 350 355 358 1 7 7 3 357 347 332 306 281 264 256 252 251 250 248 245 245 244 242 241 242 246 250 252 252 249 246 244 243 242 242 242 240 238
354 354 355 355 356 356 356 356 355 353 351 350 347 342 338 339 340 342 341 340 339 339 339 337 336 337 337 337 336 336 338 339 340 341 342 344 344 344 344 341 339 339 340 339 337 337 336 337 341 344 347 349 352 353 354 354 348 338 325 311 291 273 263 257 254 251 248 247 247 246 243 241 240 243 248 251 251 249 245 243 243 242 242 242 240
353 353 352 352 352 353 354 354 354 355 352 347 340 335 332 332 335 338 339 339 338 338 339 336 335 335 335 335 334 334 335 336 337 338 339 340 340 340 341 339 336 335 337 336 334 333 331 330 331 334 338 341 342 343 345 345 343 337 327 316 305 294 280 269 261 256 252 249 248 248 247 245 241 239 241 246 250 250 247 244 243 242 241 241 241
351 351 350 350 350 351 351 352 352 354 354 351 343 335 330 329 332 335 334 333 334 335 335 333 332 332 333 334 333 333 332 333 334 336 336 336 334 334 335 336 334 331 332 332 332 331 328 325 324 324 328 333 335 336 338 339 339 337 331 322 312 305 296 285 273 264 258 253 251 249 249 247 245 241 238 239 243 247 247 245 242 241 241 240 240
349 349 348 347 348 348 348 349 350 351 351 351 348 341 336 333 332 332 331 330 330 331 331 329 328 330 332 333 333 331 330 330 331 333 333 331 329 328 328 329 330 329 327 328 329 329 325 322 320 319 321 325 327 328 330 332 334 334 333 329 323 317 310 301 290 276 266 260 255 252 249 248 247 245 241 238 238 241 244 245 243 240 239 239 239
346 345 344 345 345 346 346 347 348 348 348 348 346 343 340 337 335 334 333 331 330 330 329 328 328 329 331 333 333 331 330 329 330 330 329 327 324 322 322 323 325 325 325 326 327 327 324 320 318 316 316 317 320 322 324 324 326 328 329 328 326 324 320 315 308 296 280 268 260 256 253 249 247 246 244 241 238 238 239 241 243 242 239 237 238
342 341 341 342 343 343 344 344 344 345 345 345 345 343 340 338 336 334 333 332 332 331 330 330 330 330 331 331 331 330 329 329 328 328 326 324 320 318 318 319 321 323 324 326 326 325 323 320 318 317 314 312 314 317 319 319 319 321 323 325 325 325 323 320 315 309 299 282 268 260 256 253 250 247 245 243 241 239 237 237 239 242 241 238 237
339 339 339 340 341 342 342 342 342 342 343 343 343 343 340 337 335 334 332 332 331 331 330 331 332 332 332 331 330 329 328 327 327 326 325 322 319 317 317 317 318 320 321 322 323 321 321 319 317 316 314 312 311 313 315 316 315 317 319 321 322 322 321 319 315 311 306 297 282 268 260 256 253 249 246 244 243 241 239 237 237 238 241 241 238
336 337 338 339 340 340 340 340 340 340 341 341 341 341 339 337 334 332 331 330 330 329 330 331 332 332 332 331 329 327 326 326 325 325 324 321 318 316 316 317 318 320 320 319 318 318 318 318 315 313 313 312 311 311 312 313 314 316 317 318 318 318 319 319 318 315 311 306 296 283 270 260 255 252 248 244 242 241 241 239 238 237 237 240 240
334 335 336 337 338 338 338 338 338 339 339 340 340 339 338 336 333 331 330 328 328 329 329 330 331 331 332 330 329 327 325 325 324 324 322 319 317 316 316 317 318 320 319 317 316 315 315 316 315 312 311 310 309 310 310 311 313 315 316 316 316 316 318 321 321 319 314 309 303 294 282 270 259 254 250 246 242 240 240 240 239 238 237 237 239
332 333 334 335 335 336 336 336 336 337 338 339 339 338 337 336 333 331 330 328 327 328 328 329 330 330 331 330 329 327 325 325 325 323 320 317 317 318 318 319 317 316 315 314 314 313 313 315 314 311 310 308 308 309 310 312 312 313 314 315 315 317 318 320 321 319 315 310 304 298 290 280 268 258 251 248 245 241 239 238 239 239 239 238 237
330 331 332 333 333 334 334 335 335 335 336 337 338 337 337 336 334 332 329 327 327 327 328 328 329 329 329 329 329 327 325 325 326 324 319 317 317 319 322 321 316 312 311 311 312 312 312 313 313 310 309 308 309 311 311 312 313 313 314 315 316 316 315 315 318 320 317 312 307 301 295 286 277 266 256 249 246 243 240 238 237 238 239 239 238
328 329 330 331 332 333 333 333 334 334 335 336 336 337 336 335 334 332 329 327 327 327 328 328 329 328 328 328 327 326 324 324 325 324 321 319 318 321 323 319 315 311 309 310 311 311 310 310 310 309 309 309 311 312 313 313 314 316 316 316 315 313 311 312 316 318 317 313 309 305 300 293 283 273 262 254 248 245 242 239 237 236 237 238 239
326 327 328 329 330 331 331 332 332 333 334 334 335 336 335 334 333 331 329 327 326 326 327 327 327 327 327 326 325 324 322 322 323 324 323 322 321 321 321 319 315 312 310 309 309 308 307 306 306 307 308 310 312 313 314 315 316 316 316 314 312 311 310 312 316 317 315 311 307 305 303 298 290 279 268 259 253 248 245 242 239 236 235 236 237
324 325 326 327 329 330 330 330 331 332 333 333 334 334 334 333 332 330 328 327 325 325 325 326 326 325 325 324 324 324 322 321 323 324 325 324 323 322 321 319 316 312 310 308 306 304 304 303 304 306 309 311 313 313 314 314 314 314 314 313 313 312 313 315 317 316 314 311 307 304 302 300 294 285 275 265 258 253 248 245 242 238 235 234 235
322 323 325 326 327 328 329 329 330 331 332 332 332 332 332 331 330 329 327 325 324 324 324 325 325 325 324 323 324 325 324 323 323 325 326 326 324 322 321 319 314 310 307 305 303 302 302 302 304 307 309 311 313 313 312 312 313 313 314 314 314 315 317 318 317 314 312 310 307 304 302 299 295 288 281 274 266 259 254 249 246 242 237 235 234
320 322 323 324 326 327 328 329 329 330 331 331 332 332 331 330 329 327 325 323 322 323 324 324 324 324 324 323 325 326 325 324 323 324 325 325 324 322 320 317 312 309 306 305 304 303 304 305 306 308 309 311 312 312 311 312 313 313 314 315 314 317 321 321 317 313 310 308 306 304 301 298 295 288 283 280 274 266 260 255 249 245 240 236 234
319 321 322 323 324 326 327 328 328 329 330 330 331 331 330 329 329 326 323 322 322 322 323 323 323 323 323 324 325 326 326 324 322 322 324 325 323 321 318 315 312 309 308 307 306 306 306 307 308 309 310 311 311 311 311 312 312 313 315 316 314 317 322 322 318 314 310 308 306 304 301 297 294 288 283 281 277 271 266 262 255 248 243 238 234
318 319 320 321 323 325 326 327 327 327 329 329 330 330 329 328 327 324 322 320 320 321 321 321 322 322 323 325 326 326 325 323 321 321 322 323 321 318 316 315 313 311 310 308 307 307 307 308 309 310 309 309 309 310 311 312 312 313 315 316 317 320 322 322 319 315 312 310 308 305 301 297 293 289 283 280 278 275 271 267 260 253 246 241 237
316 318 319 320 322 324 325 325 325 326 327 329 329 329 328 327 324 322 321 319 317 318 320 320 320 320 322 325 327 326 324 322 320 319 320 321 320 317 316 316 315 313 310 308 307 307 308 310 309 308 307 306 307 308 309 311 311 312 314 316 319 323 324 322 320 317 313 312 310 305 301 296 293 289 284 281 279 277 276 271 264 257 249 243 239
315 316 317 319 321 322 323 323 324 325 326 328 328 328 327 325 321 320 320 318 315 316 319 319 319 320 323 326 326 325 322 320 319 318 318 319 318 317 317 317 316 315 312 309 308 308 307 307 306 305 304 304 305 305 306 307 308 309 312 315 319 323 325 323 320 318 314 312 310 304 298 293 290 287 284 281 278 276 275 271 266 260 253 247 242
314 315 316 318 319 320 321 322 322 323 325 326 328 327 325 322 321 320 319 317 316 317 318 319 319 320 323 326 326 324 320 317 316 315 316 318 317 317 318 318 317 316 314 311 309 307 305 305 304 303 303 302 302 303 304 305 306 307 309 313 316 321 323 323 321 319 315 313 311 304 296 290 287 285 283 280 278 275 272 269 265 261 256 251 246
312 313 315 316 317 319 320 320 321 322 323 325 327 326 322 321 321 319 318 317 316 317 317 318 318 317 320 324 325 322 318 315 314 312 314 317 317 317 319 319 317 316 315 312 309 307 304 303 303 302 302 301 301 302 303 304 305 306 308 311 314 319 322 323 321 319 316 314 312 307 299 292 288 285 282 279 276 273 270 267 265 262 258 253 249
311 312 313 315 316 317 318 319 319 321 322 325 327 324 321 321 321 319 319 318 317 317 316 315 315 315 316 319 322 320 316 313 312 310 313 316 316 317 320 318 315 313 312 311 308 305 303 301 301 301 300 300 301 302 303 304 305 306 307 309 313 318 321 322 321 319 316 314 311 307 301 295 291 288 285 281 278 273 269 265 262 260 258 254 250
310 311 312 313 314 315 316 317 318 320 322 324 326 323 320 320 321 320 319 319 318 317 314 313 314 315 316 316 318 318 315 312 310 309 312 314 315 317 320 318 314 310 309 309 307 304 301 300 300 300 299 300 301 302 302 303 304 305 306 307 311 317 321 322 321 319 316 314 311 306 301 296 293 290 287 284 280 276 272 267 262 258 256 254 251
310 310 310 311 312 313 314 316 317 319 321 322 323 321 319 319 320 320 318 318 318 315 313 314 316 316 316 315 315 317 315 312 309 309 311 312 313 317 320 318 313 310 307 306 306 303 299 298 298 299 299 300 300 301 301 302 303 305 305 306 311 317 321 321 319 317 315 313 310 306 301 297 295 292 289 286 282 279 276 271 267 262 258 255 252
309 309 309 310 311 312 314 316 316 317 318 319 320 320 319 318 318 317 317 318 319 316 314 316 317 315 315 315 315 316 316 312 309 307 308 309 310 316 320 317 312 310 308 306 304 299 295 295 297 297 298 298 299 300 300 301 303 304 305 306 312 318 320 318 316 314 312 310 308 305 302 299 297 294 291 289 286 283 279 275 270 265 260 256 253
309 308 308 309 310 312 314 315 316 316 317 318 319 319 319 317 317 317 318 318 317 314 313 316 316 315 315 315 314 314 314 312 308 306 305 305 308 314 318 316 311 310 309 305 301 296 293 294 295 296 296 297 298 299 301 302 303 304 306 310 314 317 317 315 313 311 309 307 306 305 303 300 298 296 294 292 290 286 282 277 272 267 261 256 252
307 307 307 309 310 312 313 314 315 316 317 318 319 319 318 317 317 318 318 316 314 313 314 316 316 316 315 315 314 314 313 311 309 306 305 304 307 311 315 314 310 307 306 303 298 295 293 292 293 294 296 297 298 300 301 303 305 307 310 312 312 312 312 312 310 309 307 306 305 305 303 300 299 298 297 294 291 287 283 278 273 267 262 257 252
305 305 306 308 309 311 312 314 314 315 316 317 317 317 317 317 318 319 318 315 313 313 315 316 316 316 316 316 316 315 314 312 309 307 306 305 306 309 312 312 308 304 303 302 297 294 291 290 291 293 295 297 299 300 302 303 305 306 307 306 306 308 310 310 309 307 305 304 305 305 303 301 301 301 299 296 292 288 282 277 272 267 262 257 252
303 304 305 307 308 309 310 311 312 313 314 314 315 315 316 317 318 318 315 312 310 308 310 313 315 316 316 316 316 315 313 311 309 307 306 306 307 307 309 312 310 304 302 299 294 290 289 289 291 293 295 297 298 299 300 301 302 302 303 303 304 307 308 309 307 306 304 304 305 305 304 303 302 302 300 297 293 288 283 277 272 267 262 257 252
301 302 304 305 306 307 308 308 310 311 312 312 312 313 315 318 319 314 307 305 303 303 307 312 314 315 316 316 316 314 312 309 306 305 306 306 306 307 310 313 311 305 301 297 291 289 290 291 293 294 295 296 297 297 298 300 301 302 303 303 305 306 307 307 306 305 304 305 305 305 305 304 303 303 301 297 293 289 283 277 271 266 261 256 252
300 302 303 303 304 305 306 307 309 311 311 311 311 312 314 317 314 306 301 301 301 304 309 312 313 314 314 314 315 312 307 304 303 303 304 304 303 305 309 311 308 305 303 299 294 292 292 292 292 293 294 295 297 298 299 300 301 301 303 304 305 305 306 305 304 304 305 305 305 305 306 305 304 303 301 297 293 289 283 277 271 265 260 255 251
300 301 302 303 303 304 306 307 309 310 310 310 310 311 312 312 308 304 303 303 305 307 310 311 312 313 313 314 314 310 303 301 302 303 302 302 303 304 305 307 307 306 304 300 296 293 291 290 290 292 294 296 297 298 299 299 299 301 303 304 304 304 304 304 304 304 304 304 304 306 307 305 304 302 300 297 293 289 284 277 271 264 258 254 250
299 300 301 302 304 305 306 308 310 311 311 310 310 311 312 311 310 309 308 308 309 310 310 311 311 312 312 313 311 307 303 302 302 303 303 303 303 303 304 306 307 305 302 298 294 291 290 290 291 292 294 295 296 296 297 298 299 301 302 302 303 303 303 303 304 304 304 304 304 306 306 305 303 301 299 296 293 289 284 277 271 264 257 253 250
299 300 301 303 304 306 307 308 310 311 311 310 310 311 312 311 311 311 310 311 311 311 310 311 311 311 311 311 309 306 304 304 303 303 303 302 302 303 304 306 306 303 300 297 294 292 291 291 292 293 294 295 295 296 298 299 300 301 301 301 302 302 303 303 304 304 304 303 304 305 306 304 302 300 297 294 291 288 283 278 271 264 258 253 250
Height
10987 10986 10985 10983 10982 10980 10978 10976 10975 10974 10972 10970 10969 10967 10966 10964 10963 10962 10961 10960 10960 10959 10957 10955 10953 10951 10948 10946 10943 10939 10936 10933 10930 10927 10923 10920 10917 10914 10913 10914 10916 10919 10921 10924 10926 10928 10929 10930 10931 10933 10934 10933 10931 10930 10930 10930 10932 10934 10936 10937 10937 10938 10938 10939 10939 10940 10940 10941 10941 10942 10942 10943 10943 10943 10943 10943 10943 10943 10943 10943 10943 10944 10944 10944 10944
10988 10987 10985 10983 10982 10980 10979 10977 10976 10974 10972 10971 10969 10967 10966 10965 10964 10963 10962 10961 10960 10959 10957 10956 10954 10952 10950 10947 10944 10941 10938 10935 10932 10929 10925 10922 10918 10915 10913 10912 10914 10917 10919 10922 10924 10926 10928 10929 10931 10933 10933 10930 10929 10929 10930 10931 10933 10935 10937 10937 10937 10938 10938 10937 10938 10938 10939 10940 10940 10941 10942 10942 10943 10943 10943 10943 10943 10943 10943 10943 10943 10943 10943 10944 10944
10989 10987 10986 10984 10982 10981 10979 10978 10976 10974 10972 10971 10969 10968 10967 10965 10964 10963 10962 10961 10960 10959 10957 10956 10954 10952 10950 10948 10946 10943 10940 10937 10933 10930 10927 10924 10921 10917 10914 10913 10914 10916 10918 10920 10923 10925 10926 10928 10930 10931 10929 10926 10927 10930 10931 10932 10933 10935 10935 10935 10936 10937 10937 10937 10937 10937 10938 10939 10939 10940 10940 10941 10941 10942 10942 10942 10942 10942 10942 10942 10942 10942 10942 10943 10943
10989 10987 10986 10984 10983 10981 10980 10978 10976 10974 10973 10971 10970 10968 10967 10965 10964 10963 10962 10961 10960 10959 10957 10956 10954 10952 10951 10949 10947 10944 10941 10938 10935 10933 10930 10928 10924 10921 10917 10915 10915 10916 10918 10920 10922 10923 10925 10926 10928 10928 10925 10923 10927 10930 10930 10930 10931 10932 10933 10934 10935 10935 10936 10936 10937 10937 10938 10938 10938 10938 10939 10939 10940 10940 10941 10941 10942 10942 10942 10942 10942 10942 10942 10942 10942
10990 10988 10986 10985 10983 10981 10980 10978 10976 10974 10973 10971 10970 10969 10967 10965 10964 10963 10962 10961 10960 10959 10958 10956 10955 10953 10951 10949 10947 10945 10943 10940 10937 10935 10932 10930 10927 10924 10921 10919 10917 10917 10918 10919 10921 10922 10924 10925 10926 10926 10924 10923 10926 10928 10928 10929 10929 10931 10932 10933 10933 10934 10934 10935 10936 10937 10937 10937 10938 10938 10938 10938 10938 10939 10940 10940 10941 10941 10941 10942 10942 10942 10942 10942 10942
10990 10988 10986 10985 10984 10982 10980 10978 10976 10974 10973 10972 10970 10968 10967 10966 10965 10964 10962 10961 10960 10959 10958 10956 10955 10953 10952 10950 10948 10946 10944 10941 10939 10936 10934 10932 10930 10928 10925 10923 10920 10919 10919 10919 10920 10921 10922 10923 10924 10924 10923 10923 10925 10926 10926 10927 10928 10930 10931 10931 10932 10932 10933 10933 10934 10935 10936 10936 10936 10937 10937 10937 10937 10938 10938 10939 10939 10939 10940 10940 10941 10941 10941 10941 10941
10990 10988 10987 10986 10984 10982 10981 10979 10977 10975 10973 10971 10970 10968 10967 10966 10965 10964 10962 10961 10960 10959 10958 10956 10955 10953 10951 10949 10947 10946 10944 10942 10940 10938 10936 10934 10932 10930 10928 10926 10924 10922 10920 10919 10920 10920 10921 10922 10923 10922 10922 10922 10924 10924 10924 10925 10927 10928 10929 10930 10930 10931 10931 10932 10932 10933 10934 10934 10935 10935 10936 10936 10936 10937 10937 10937 10938 10938 10938 10939 10939 10940 10940 10940 10940
10989 10988 10987 10986 10984 10982 10981 10979 10977 10976 10974 10972 10970 10969 10967 10966 10965 10964 10963 10961 10960 10959 10957 10956 10954 10953 10951 10949 10947 10945 10944 10942 10940 10938 10936 10935 10933 10932 10930 10928 10926 10924 10922 10920 10920 10920 10920 10921 10921 10920 10920 10921 10922 10922 10923 10924 10926 10926 10927 10928 10928 10929 10929 10930 10931 10931 10932 10932 10933 10933 10934 10934 10935 10935 10936 10936 10936 10937 10937 10937 10938 10938 10939 10939 10939
10989 10988 10987 10986 10984 10982 10981 10979 10977 10976 10974 10973 10971 10969 10968 10966 10965 10964 10963 10961 10960 10958 10956 10955 10953 10952 10950 10948 10947 10945 10944 10942 10941 10939 10937 10935 10933 10932 10931 10930 10928 10927 10925 10923 10922 10921 10919 10919 10919 10917 10918 10918 10919 10920 10921 10923 10925 10925 10926 10926 10926 10926 10927 10928 10928 10929 10930 10930 10931 10931 10932 10932 10933 10933 10934 10934 10935 10935 10936 10936 10936 10937 10937 10938 10938
10989 10988 10987 10986 10984 10982 10981 10979 10977 10976 10974 10973 10971 10969 10968 10966 10965 10964 10962 10961 10959 10958 10955 10954 10952 10951 10949 10948 10946 10945 10943 10942 10940 10939 10937 10935 10934 10932 10931 10930 10929 10928 10927 10925 10923 10922 10920 10918 10917 10916 10916 10916 10916 10917 10918 10920 10922 10923 10923 10924 10924 10924 10925 10925 10926 10926 10927 10927 10928 10928 10929 10929 10930 10930 10931 10932 10932 10933 10933 10934 10934 10935 10935 10935 10936
10989 10988 10986 10985 10983 10982 10980 10978 10977 10975 10974 10972 10971 10969 10968 10966 10965 10963 10962 10961 10959 10957 10955 10953 10952 10951 10949 10947 10946 10944 10942 10941 10940 10938 10937 10935 10934 10933 10931 10930 10928 10928 10927 10925 10924 10922 10920 10918 10916 10915 10914 10914 10914 10914 10915 10916 10917 10918 10919 10920 10921 10922 10922 10922 10923 10923 10924 10924 10925 10925 10926 10926 10927 10927 10928 10929 10930 10930 10930 10931 10931 10932 10932 10932 10933
10989 10987 10986 10984 10983 10981 10979 10977 10975 10973 10972 10971 10970 10969 10967 10966 10965 10963 10962 10961 10959 10957 10955 10953 10952 10950 10949 10947 10945 10943 10942 10940 10939 10938 10936 10935 10934 10932 10931 10929 10928 10927 10926 10925 10924 10922 10920 10919 10917 10915 10913 10912 10912 10912 10912 10913 10914 10915 10916 10917 10918 10918 10919 10919 10920 10920 10920 10921 10922 10922 10922 10922 10923 10924 10925 10926 10926 10927 10927 10927 10928 10928 10929 10929 10930
10988 10987 10985 10983 10982 10980 10978 10976 10974 10972 10970 10970 10969 10968 10967 10966 10964 10963 10961 10960 10958 10957 10955 10953 10951 10949 10948 10946 10945 10943 10941 10939 10938 10937 10936 10934 10933 10931 10930 10928 10927 10925 10924 10923 10922 10921 10920 10918 10917 10915 10913 10912 10911 10910 10909 10910 10910 10912 10913 10914 10914 10915 10915 10916 10917 10917 10918 10918 10918 10918 10919 10919 10919 10920 10921 10922 10923 10923 10924 10924 10924 10925 10925 10926 10928
10988 10986 10985 10983 10981 10980 10978 10975 10973 10971 10969 10968 10968 10967 10966 10965 10964 10962 10960 10959 10957 10956 10954 10952 10950 10948 10947 10945 10944 10942 10940 10938 10937 10936 10935 10933 10932 10930 10928 10927 10926 10924 10923 10922 10921 10920 10918 10917 10916 10914 10913 10912 10911 10909 10908 10907 10907 10908 10909 10910 10911 10911 10912 10912 10913 10914 10914 10914 10915 10915 10915 10915 10916 10916 10917 10918 10919 10920 10920 10921 10921 10922 10923 10924 10925
10987 10986 10984 10982 10981 10979 10977 10975 10973 10971 10969 10968 10967 10966 10965 10964 10962 10961 10959 10957 10956 10954 10953 10951 10949 10947 10945 10943 10942 10940 10938 10936 10935 10934 10933 10932 10930 10929 10927 10926 10924 10923 10921 10920 10918 10918 10916 10915 10913 10912 10911 10910 10909 10908 10907 10906 10905 10905 10905 10906 10906 10907 10908 10908 10909 10909 10910 10910 10911 10911 10911 10912 10912 10912 10913 10914 10915 10916 10916 10917 10918 10918 10920 10921 10922
10987 10985 10984 10982 10980 10979 10977 10975 10973 10971 10969 10967 10966 10965 10964 10962 10961 10959 10958 10956 10955 10953 10951 10949 10947 10945 10943 10942 10940 10938 10937 10935 10933 10932 10931 10930 10928 10927 10926 10924 10923 10921 10920 10918 10917 10915 10914 10913 10911 10910 10909 10908 10907 10906 10905 10904 10904 10903 10902 10902 10902 10902 10903 10903 10904 10904 10905 10905 10905 10906 10907 10908 10908 10908 10909 10909 10910 10911 10912 10913 10914 10915 10916 10917 10918
10987 10985 10984 10982 10980 10978 10977 10975 10973 10971 10969 10967 10966 10964 10963 10961 10960 10958 10957 10955 10953 10951 10950 10947 10946 10944 10942 10940 10938 10937 10935 10933 10931 10929 10928 10927 10927 10925 10923 10922 10921 10919 10918 10916 10915 10913 10911 10910 10908 10907 10906 10905 10904 10903 10902 10902 10901 10900 10900 10899 10899 10898 10898 10898 10898 10898 10899 10899 10900 10900 10901 10903 10904 10904 10905 10905 10905 10906 10908 10909 10910 10911 10912 10913 10914
10986 10984 10983 10981 10980 10978 10976 10974 10973 10971 10969 10967 10966 10964 10962 10961 10959 10958 10956 10954 10952 10950 10948 10946 10944 10943 10941 10939 10937 10935 10933 10931 10929 10927 10925 10924 10923 10923 10921 10920 10918 10917 10916 10914 10912 10911 10910 10907 10906 10904 10902 10902 10901 10900 10899 10898 10898 10897 10897 10896 10895 10895 10894 10893 10892 10892 10892 10893 10893 10894 10895 10896 10898 10899 10900 10900 10900 10901 10902 10904 10905 10907 10908 10909 10910
10985 10983 10982 10980 10979 10977 10975 10974 10972 10970 10968 10967 10965 10964 10962 10960 10959 10957 10955 10953 10950 10948 10947 10945 10943 10941 10939 10937 10935 10933 10931 10929 10927 10924 10922 10921 10919 10919 10919 10918 10916 10913 10913 10911 10909 10908 10907 10905 10903 10901 10899 10898 10897 10896 10895 10894 10894 10893 10893 10892 10892 10891 10890 10889 10888 10887 10886 10886 10886 10887 10888 10889 10890 10892 10894 10895 10895 10896 10897 10898 10900 10902 10903 10904 10905
10983 10982 10981 10979 10978 10976 10974 10973 10971 10969 10967 10966 10964 10963 10961 10959 10957 10955 10953 10951 10949 10947 10945 10943 10941 10940 10938 10935 10933 10931 10929 10927 10925 10923 10920 10918 10916 10914 10914 10914 10914 10912 10909 10908 10906 10905 10903 10902 10901 10899 10896 10894 10894 10892 10891 10890 10889 10888 10888 10887 10886 10886 10885 10884 10883 10882 10881 10880 10880 10880 10881 10882 10883 10885 10886 10888 10889 10890 10891 10892 10894 10896 10898 10900 10901
10982 10981 10979 10978 10976 10975 10973 10971 10970 10968 10966 10964 10963 10961 10958 10956 10954 10952 10950 10949 10947 10945 10943 10941 10939 10937 10935 10933 10931 10929 10927 10924 10923 10920 10918 10916 10914 10911 10909 10909 10909 10909 10907 10905 10903 10902 10899 10897 10897 10896 10893 10891 10890 10888 10888 10886 10885 10883 10882 10881 10881 10880 10879 10878 10878 10877 10875 10874 10873 10873 10873 10874 10875 10877 10878 10880 10882 10884 10885 10887 10888 10890 10892 10894 10896
10981 10979 10978 10976 10975 10974 10972 10970 10968 10967 10965 10963 10961 10959 10956 10954 10951 10949 10947 10945 10944 10942 10940 10938 10936 10934 10932 10930 10929 10926 10924 10922 10920 10918 10916 10914 10911 10909 10907 10904 10903 10903 10903 10901 10899 10898 10896 10894 10891 10891 10890 10888 10886 10884 10883 10883 10881 10879 10877 10876 10874 10873 10872 10872 10872 10871 10870 10869 10868 10866 10866 10866 10867 10868 10870 10872 10874 10876 10878 10880 10882 10883 10885 10888 10890
10979 10977 10976 10975 10973 10972 10970 10969 10967 10965 10963 10962 10960 10958 10955 10952 10949 10947 10945 10943 10941 10940 10938 10936 10934 10932 10929 10927 10925 10923 10921 10919 10917 10915 10913 10911 10909 10906 10904 10902 10899 10898 10897 10897 10895 10893 10892 10891 10888 10885 10884 10883 10882 10880 10878 10877 10876 10875 10873 10871 10869 10868 10867 10866 10866 10865 10864 10863 10862 10861 10859 10858 10858 10859 10861 10863 10865 10867 10869 10872 10875 10877 10878 10881 10883
10977 10975 10974 10973 10971 10970 10968 10967 10965 10963 10961 10959 10958 10956 10953 10950 10947 10945 10943 10941 10939 10937 10935 10933 10931 10929 10927 10924 10922 10919 10917 10915 10913 10911 10909 10907 10905 10903 10900 10898 10896 10893 10892 10891 10891 10889 10887 10886 10885 10882 10879 10877 10876 10875 10873 10871 10870 10869 10868 10866 10865 10863 10862 10861 10859 10858 10857 10856 10855 10854 10853 10852 10851 10850 10851 10853 10855 10858 10860 10863 10866 10869 10871 10873 10876
10975 10974 10972 10970 10969 10968 10966 10965 10963 10962 10960 10957 10955 10953 10951 10949 10946 10943 10941 10938 10937 10935 10933 10930 10928 10926 10924 10921 10919 10916 10913 10911 10909 10907 10905 10903 10901 10899 10897 10894 10892 10889 10887 10885 10884 10883 10882 10881 10880 10878 10876 10873 10871 10869 10867 10866 10864 10863 10862 10861 10859 10858 10856 10854 10852 10850 10849 10848 10847 10846 10845 10844 10843 10842 10842 10843 10845 10847 10850 10853 10856 10859 10863 10866 10868
10973 10972 10970 10968 10966 10965 10964 10963 10961 10959 10958 10955 10952 10950 10948 10946 10943 10941 10938 10935 10933 10932 10930 10928 10925 10923 10921 10918 10916 10913 10911 10908 10906 10903 10901 10898 10897 10895 10892 10890 10888 10886 10884 10882 10879 10876 10875 10875 10874 10873 10871 10869 10867 10864 10862 10860 10858 10857 10856 10855 10853 10851 10849 10847 10846 10844 10842 10840 10839 10838 10837 10836 10835 10835 10834 10834 10835 10836 10839 10843 10846 10849 10852 10856 10860
10971 10969 10968 10967 10964 10962 10961 10960 10958 10956 10955 10953 10950 10947 10945 10942 10940 10937 10935 10932 10930 10928 10926 10924 10922 10919 10917 10915 10912 10910 10908 10906 10903 10900 10897 10894 10892 10890 10887 10885 10884 10882 10880 10879 10876 10873 10869 10868 10867 10866 10865 10864 10862 10859 10857 10854 10852 10851 10850 10848 10846 10844 10842 10841 10839 10836 10834 10832 10830 10829 10828 10828 10827 10826 10826 10825 10826 10827 10828 10831 10835 10838 10842 10845 10850
10968 10967 10965 10964 10962 10960 10958 10957 10955 10953 10952 10950 10948 10945 10942 10939 10937 10934 10931 10929 10927 10925 10923 10920 10918 10916 10913 10910 10908 10905 10903 10901 10899 10896 10893 10890 10887 10885 10882 10880 10879 10877 10876 10874 10872 10869 10866 10863 10861 10860 10859 10857 10855 10853 10850 10848 10845 10843 10842 10840 10839 10838 10836 10834 10832 10829 10826 10824 10822 10821 10820 10819 10819 10818 10817 10817 10817 10818 10819 10820 10823 10827 10831 10835 10839
10966 10964 10962 10961 10960 10958 10956 10954 10952 10951 10949 10947 10945 10942 10940 10937 10934 10932 10929 10926 10924 10921 10919 10917 10915 10912 10910 10907 10904 10901 10898 10896 10894 10891 10888 10885 10883 10880 10878 10875 10874 10872 10870 10869 10867 10865 10863 10860 10857 10855 10853 10851 10849 10847 10844 10842 10839 10837 10835 10834 10833 10831 10829 10827 10825 10822 10819 10816 10814 10813 10812 10811 10810 10809 10809 10809 10809 10809 10809 10810 10812 10815 10819 10824 10828
10964 10962 10960 10957 10956 10955 10953 10951 10950 10948 10946 10943 10941 10939 10936 10934 10931 10928 10926 10923 10920 10918 10916 10914 10911 10909 10906 10904 10901 10897 10894 10891 10889 10886 10883 10880 10878 10875 10873 10870 10868 10866 10865 10864 10863 10861 10859 10857 10854 10851 10848 10846 10844 10842 10840 10838 10835 10833 10831 10830 10828 10826 10823 10820 10816 10813 10810 10808 10806 10804 10803 10802 10801 10800 10800 10800 10800 10800 10800 10801 10802 10804 10807 10812 10816
10961 10960 10958 10955 10953 10951 10949 10948 10947 10945 10943 10940 10938 10935 10932 10930 10927 10924 10921 10918 10916 10913 10911 10910 10907 10905 10902 10899 10896 10893 10889 10886 10883 10881 10878 10875 10872 10870 10867 10865 10863 10861 10859 10858 10857 10856 10854 10852 10850 10847 10844 10842 10840 10839 10837 10835 10833 10831 10829 10826 10823 10820 10817 10813 10808 10804 10802 10799 10797 10796 10794 10793 10792 10791 10791 10791 10791 10791 10791 10792 10792 10794 10796 10800 10804
10958 10956 10955 10953 10950 10948 10946 10944 10943 10941 10939 10937 10934 10931 10928 10925 10923 10920 10917 10914 10911 10909 10907 10905 10902 10900 10897 10893 10890 10887 10884 10881 10878 10876 10873 10870 10867 10865 10862 10860 10858 10856 10854 10851 10850 10849 10848 10846 10844 10843 10841 10839 10837 10836 10833 10831 10829 10826 10824 10822 10818 10814 10810 10805 10801 10797 10794 10791 10788 10787 10785 10784 10782 10782 10781 10781 10781 10781 10782 10782 10783 10784 10785 10788 10791
10953 10952 10951 10949 10947 10945 10942 10941 10939 10937 10935 10932 10930 10927 10923 10920 10918 10915 10912 10910 10907 10904 10902 10900 10897 10895 10891 10888 10885 10882 10879 10876 10874 10871 10869 10866 10863 10860 10858 10856 10853 10851 10848 10845 10843 10842 10841 10839 10838 10836 10835 10833 10831 10830 10828 10826 10823 10819 10817 10815 10812 10808 10804 10799 10795 10791 10787 10783 10780 10778 10776 10775 10774 10773 10772 10772 10772 10772 10772 10773 10773 10774 10775 10777 10780
10949 10948 10946 10945 10943 10941 10939 10937 10935 10933 10931 10929 10926 10923 10920 10916 10912 10909 10907 10905 10903 10900 10897 10895 10893 10890 10886 10883 10880 10877 10874 10872 10869 10867 10864 10861 10859 10856 10854 10851 10848 10845 10842 10839 10837 10835 10834 10833 10831 10829 10827 10826 10824 10823 10821 10819 10817 10813 10809 10807 10805 10802 10797 10793 10789 10785 10781 10776 10772 10770 10768 10767 10766 10765 10764 10763 10763 10763 10763 10763 10763 10764 10765 10767 10769
10946 10944 10942 10940 10939 10937 10936 10934 10931 10929 10927 10925 10922 10919 10915 10912 10907 10903 10901 10899 10897 10895 10893 10890 10887 10885 10882 10878 10875 10872 10869 10867 10864 10862 10859 10857 10854 10852 10849 10846 10843 10840 10836 10833 10831 10829 10827 10825 10824 10822 10820 10818 10816 10815 10813 10811 10809 10807 10804 10800 10796 10793 10789 10785 10781 10778 10775 10771 10766 10763 10761 10759 10758 10757 10756 10756 10755 10754 10754 10754 10754 10754 10756 10757 10759
10942 10941 10939 10937 10935 10934 10932 10930 10928 10925 10923 10921 10918 10914 10910 10905 10901 10897 10894 10892 10891 10890 10888 10885 10882 10880 10877 10874 10870 10867 10864 10861 10859 10856 10853 10851 10848 10845 10842 10839 10837 10833 10830 10828 10825 10823 10820 10819 10817 10816 10813 10811 10809 10807 10805 10803 10801 10799 10797 10794 10789 10785 10781 10778 10774 10770 10768 10766 10762 10758 10755 10752 10751 10750 10749 10748 10747 10746 10745 10745 10745 10745 10746 10748 10750
10937 10936 10935 10933 10931 10930 10928 10926 10924 10922 10920 10917 10914 10909 10904 10900 10895 10892 10888 10885 10883 10882 10881 10879 10876 10874 10871 10869 10866 10863 10860 10857 10854 10850 10847 10845 10842 10839 10836 10833 10830 10827 10824 10822 10819 10817 10815 10812 10810 10808 10806 10804 10801 10799 10798 10795 10792 10789 10788 10786 10783 10779 10775 10771 10766 10762 10759 10758 10756 10752 10749 10747 10745 10743 10741 10740 10738 10737 10737 10736 10736 10737 10737 10738 10740
10932 10931 10931 10930 10928 10926 10924 10922 10920 10918 10915 10914 10910 10904 10898 10894 10891 10887 10883 10880 10877 10875 10874 10872 10870 10868 10866 10863 10861 10858 10855 10851 10848 10845 10842 10839 10835 10832 10829 10826 10823 10819 10817 10815 10813 10811 10809 10805 10802 10800 10798 10796 10792 10790 10789 10787 10784 10781 10778 10776 10773 10771 10768 10764 10759 10754 10750 10747 10745 10744 10742 10739 10737 10735 10733 10732 10730 10728 10727 10727 10727 10727 10728 10728 10729
10928 10926 10925 10925 10923 10922 10920 10918 10915 10913 10910 10909 10906 10899 10892 10889 10887 10883 10879 10876 10872 10869 10867 10865 10864 10862 10860 10858 10855 10852 10849 10845 10842 10838 10835 10832 10829 10825 10822 10819 10816 10813 10810 10808 10806 10804 10801 10798 10795 10792 10789 10786 10784 10781 10779 10778 10775 10772 10770 10768 10764 10760 10758 10755 10750 10746 10743 10740 10737 10734 10732 10730 10728 10725 10723 10721 10720 10718 10718 10717 10717 10717 10717 10717 10717
10925 10921 10920 10919 10918 10917 10916 10913 10910 10908 10905 10904 10902 10895 10887 10884 10882 10878 10875 10872 10868 10865 10862 10859 10858 10856 10853 10851 10849 10846 10842 10838 10834 10830 10828 10826 10823 10818 10815 10812 10809 10806 10804 10801 10799 10796 10793 10790 10787 10784 10780 10777 10775 10773 10770 10768 10766 10764 10761 10759 10755 10750 10746 10741 10737 10734 10732 10732 10730 10726 10723 10720 10717 10714 10712 10710 10707 10705 10706 10706 10706 10706 10705 10705 10705
10922 10919 10915 10914 10914 10913 10911 10909 10906 10903 10902 10901 10899 10893 10884 10879 10877 10874 10870 10868 10865 10861 10857 10854 10852 10850 10847 10844 10841 10838 10835 10831 10827 10822 10819 10817 10816 10812 10809 10805 10802 10799 10797 10794 10792 10789 10786 10782 10778 10775 10772 10769 10766 10765 10762 10759 10758 10756 10752 10749 10746 10740 10735 10730 10725 10721 10720 10720 10719 10716 10712 10708 10706 10703 10700 10697 10694 10692 10692 10692 10692 10692 10693 10693 10692
10917 10914 10911 10908 10907 10907 10906 10904 10901 10899 10898 10898 10896 10890 10883 10877 10874 10870 10867 10865 10862 10858 10853 10850 10847 10844 10841 10837 10834 10830 10827 10823 10819 10815 10811 10809 10808 10806 10803 10800 10796 10793 10790 10787 10784 10782 10778 10773 10769 10766 10763 10760 10757 10755 10752 10750 10748 10746 10742 10739 10734 10728 10723 10720 10716 10711 10708 10708 10709 10706 10700 10695 10693 10690 10686 10683 10681 10678 10677 10676 10676 10676 10677 10677 10677
10910 10907 10904 10901 10899 10898 10898 10896 10894 10892 10892 10891 10889 10885 10880 10874 10870 10867 10864 10861 10858 10854 10849 10846 10842 10839 10835 10832 10828 10824 10820 10817 10814 10809 10805 10802 10800 10798 10795 10793 10790 10787 10784 10781 10778 10775 10770 10765 10761 10757 10753 10751 10748 10744 10742 10739 10737 10734 10730 10726 10721 10716 10713 10711 10708 10702 10697 10695 10696 10695 10689 10681 10678 10677 10674 10670 10666 10663 10661 10659 10658 10658 10659 10659 10660
10904 10901 10898 10895 10892 10889 10888 10887 10886 10884 10883 10883 10882 10879 10875 10870 10866 10863 10859 10855 10852 10848 10845 10841 10837 10833 10830 10826 10822 10818 10815 10811 10808 10804 10799 10795 10793 10790 10788 10785 10782 10779 10777 10775 10772 10768 10762 10758 10754 10749 10745 10743 10739 10734 10731 10729 10724 10720 10717 10714 10711 10709 10706 10703 10699 10693 10686 10682 10682 10682 10677 10667 10661 10663 10661 10655 10650 10648 10645 10642 10640 10639 10641 10642 10644
10898 10895 10892 10891 10887 10884 10882 10880 10878 10877 10876 10876 10875 10873 10870 10866 10861 10857 10853 10848 10845 10842 10838 10835 10831 10827 10823 10818 10814 10810 10807 10804 10801 10797 10792 10788 10785 10783 10781 10777 10773 10770 10768 10767 10765 10760 10755 10750 10746 10742 10737 10735 10732 10726 10722 10719 10716 10711 10709 10706 10703 10700 10697 10691 10686 10680 10674 10670 10670 10670 10665 10653 10646 10648 10646 10638 10634 10632 10628 10625 10624 10624 10625 10626 10628
10891 10888 10886 10885 10883 10881 10878 10876 10874 10872 10870 10869 10869 10867 10865 10862 10856 10851 10846 10841 10838 10836 10832 10829 10826 10822 10816 10811 10806 10802 10799 10796 10793 10788 10784 10780 10777 10775 10773 10769 10764 10761 10758 10757 10755 10751 10745 10741 10738 10734 10729 10725 10723 10718 10713 10710 10708 10704 10701 10697 10692 10688 10684 10679 10672 10666 10660 10656 10655 10656 10652 10640 10633 10633 10630 10621 10617 10615 10611 10610 10610 10610 10610 10610 10612
10883 10881 10880 10879 10878 10877 10875 10873 10871 10868 10864 10862 10861 10859 10859 10858 10853 10846 10841 10836 10832 10830 10826 10822 10819 10815 10810 10804 10799 10795 10790 10787 10783 10779 10775 10772 10768 10765 10763 10759 10755 10753 10750 10747 10744 10740 10734 10731 10727 10724 10719 10715 10712 10709 10705 10700 10697 10693 10690 10685 10679 10675 10672 10666 10658 10651 10645 10640 10637 10639 10638 10629 10620 10618 10615 10607 10603 10600 10597 10595 10596 10596 10596 10597 10598
10875 10873 10872 10872 10871 10871 10870 10868 10865 10862 10857 10854 10853 10851 10852 10854 10851 10844 10839 10834 10829 10824 10821 10816 10812 10808 10803 10798 10793 10788 10783 10779 10776 10773 10768 10765 10761 10759 10755 10752 10748 10745 10741 10738 10735 10731 10726 10722 10717 10712 10708 10704 10701 10698 10694 10690 10686 10682 10679 10673 10666 10662 10659 10654 10646 10638 10632 10625 10620 10621 10624 10617 10607 10604 10600 10593 10589 10587 10583 10581 10583 10583 10583 10584 10586
10866 10864 10863 10863 10863 10863 10862 10861 10859 10854 10849 10845 10844 10843 10844 10845 10843 10838 10833 10830 10825 10819 10815 10810 10805 10800 10796 10790 10786 10781 10776 10772 10770 10768 10763 10758 10754 10751 10748 10744 10740 10736 10732 10729 10726 10722 10717 10713 10708 10703 10698 10694 10690 10687 10683 10679 10674 10670 10666 10660 10654 10650 10646 10642 10636 10628 10621 10613 10606 10606 10608 10602 10594 10590 10586 10580 10576 10573 10570 10569 10570 10571 10572 10572 10574
10857 10854 10853 10853 10852 10851 10851 10851 10850 10846 10840 10835 10833 10833 10833 10832 10830 10828 10824 10820 10816 10812 10808 10803 10798 10793 10789 10784 10779 10774 10769 10765 10763 10760 10755 10750 10747 10743 10740 10736 10731 10727 10724 10721 10718 10714 10709 10703 10698 10694 10690 10685 10681 10678 10673 10669 10663 10658 10653 10648 10642 10637 10632 10628 10624 10618 10610 10601 10593 10594 10595 10589 10581 10577 10573 10568 10565 10561 10558 10558 10558 10559 10560 10562 10564
10848 10845 10844 10842 10841 10840 10839 10839 10839 10836 10831 10826 10824 10824 10822 10820 10818 10816 10813 10810 10806 10801 10798 10794 10789 10785 10781 10778 10773 10767 10762 10758 10755 10751 10747 10743 10739 10735 10731 10727 10723 10719 10716 10713 10710 10705 10700 10694 10689 10685 10680 10675 10671 10666 10662 10657 10651 10645 10640 10635 10630 10624 10619 10614 10610 10605 10599 10590 10582 10582 10582 10577 10570 10565 10561 10559 10557 10551 10546 10546 10548 10548 10550 10553 10556